CZ-4 DEB, 26351

Orbit data source: Space-Track

CZ-4 DEB, 26351 is space debris in SSO originally from a launch on Thu, 14 Oct 1999 UTC launched from the Taiyaun Space Center, China (TSC). Debris objects in space refer to the collection of defunct objects orbiting the Earth. Examples of debris include non-operational satellites, rocket bodies, and fragments generated from explosions, collisions, or faulty payload assembly.

Loading next visibility...
Identifier
26351, 1999-057JL
Orbit
SSO
Country
Flag of CNCN / PRC
Related business
Manufacturer
Unknown
Mission
Spacecraft
Bus & Motor
Unknown
Mass
Unknown
Launch date (UTC)
1999-10-14 (26 years ago)
Launch vehicle
Unknown
Launch site
Taiyaun Space Center, China (TSC)
Object type
Payload
Rocket body
Debris
Shape & HBR
Unknown shape, 0.1 m
Radar Cross Section
Small (<0.1 m²)

Expand to show TLE details & history
Last TLE update: 15 hours ago

TLE from 15 hours ago
0 CZ-4 DEB
1 26351U 99057JL  26093.60138404  .00001744  00000-0  42389-3 0  9998
2 26351  98.6244 118.0976 0054418 253.8650 105.6550 14.53297430373660
Epoch: 2026-04-03T14:25Z
TLE epoch observation values (Epoch: 2026-04-03T14:25:59.581Z)
Latitude
-0.00006°
Longitude
69.66619°
Altitude
728.474 km
Speed
7.485 km/s
True Right ascension
07h 52m 23s
True Declination
0° 00' 00"
Sunlit
Object was in daylight at epoch
Visualization orbit readout
Latitude
Unknown
Longitude
Unknown
Altitude
Unknown
Speed
Unknown
Apparent Right ascension
Unknown
Apparent Declination
Unknown
Sunlit
N/A
Visualization observer readout
Local Sidereal Time
11:27:22
Azimuth
Unknown
Elevation
Unknown
Doppler factor
Unknown
Orbital elements
Apogee altitude
750.592 km
Perigee altitude
673.426 km
Semi-major axis
7,090.146 km
Eccentricity
0.00544
Inclination
98.6244°
RAAN
118.0976°
Arg. of periapsis
253.865°
True anomaly
106.25434°
Mean anomaly
105.655°
Eccentric anomaly
105.95478°
Mean motion
3.63547 °/min
Orbital period
99.02 mins
BSTAR
0.00042389
Loading maneuver chart data...
Computing Atmospheric mass density...
Loading historical data...
Loading historical data...
Loading historical data...
Loading historical data...
Loading historical data...
Loading historical data...
Loading historical data...

Documentation

Showing up to 5 results
|